Regional Weather Roundup
Issued by NWS

Home | Current Version | Previous Version | Graphics & Text | Print | Product List | Glossary On
Versions: 1 2 3 4 5 6 7 8 9 10 11 12 13 14 15 16 17 18 19 20 21 22 23 24 25 26 27
000
ASUS45 KBOU 221907
RWRCO

WEATHER ROUNDUP FOR COLORADO
NATIONAL WEATHER SERVICE DENVER/BOULDER CO
100 PM MDT TUE AUG 22 2017

NOTE: "FAIR" INDICATES FEW OR NO CLOUDS BELOW 12000 FEET WITH NO
SIGNIFICANT WEATHER AND/OR OBSTRUCTIONS TO VISIBILITY.

COZ001>005-013-030-031-222000-
...NORTHWEST COLORADO...

CITY           SKY/WX    TMP DP  RH WIND       PRES   REMARKS
CRAIG          FAIR      86  28  12 N8        30.31F
HAYDEN         FAIR      81  35  19 W5        30.35F
MEEKER         FAIR      82  34  17 VRB5      30.31F
RABBIT EARS PA MOCLDY    64  34  32 W5        30.66S
STEAMBOAT SPGS FAIR      80  37  21 N3        30.36F
WALDEN         FAIR      77  30  18 W9        30.46S
$$

COZ006>008-011-222000-
...WEST CENTRAL VALLEYS...

CITY           SKY/WX    TMP DP  RH WIND       PRES   REMARKS
GRAND JUNCTION FAIR      85  43  22 VRB5      30.24F
MONTROSE       FAIR      82  44  26 CALM      30.31F
EAGLE          FAIR      79  38  22 CALM      30.35F
RIFLE          FAIR      84  41  21 W13       30.26F
DELTA          FAIR      84  43  23 S3        30.27F THUNDER
NUCLA          FAIR      82  41  23 SW14G20   30.37F THUNDER
$$

COZ017>023-064>068-222000-
...SOUTHWEST COLORADO...

CITY           SKY/WX    TMP DP  RH WIND       PRES   REMARKS
DURANGO        PTSUNNY   75  43  31 E7        30.38F
CORTEZ         FAIR      77  50  38 VRB5      30.34F
PAGOSA SPRINGS FAIR      74  38  26 SW9       30.45F THUNDER
TELLURIDE      TSTM      58  48  67 SE7       30.59R
WOLF CREEK PAS TSTM      48  43  81 N3        30.79F
$$

COZ009-010-012-014-032>034-037-058>063-222000-
...CENTRAL COLORADO...

CITY           SKY/WX    TMP DP  RH WIND       PRES   REMARKS
ASPEN          FAIR      76  34  21 W3        30.42F
BUENA VISTA    FAIR      73  34  23 SE7       30.46F
COPPER MTN     CLOUDY    59  32  36 W5        30.76F
BERTHOUD PASS  PTSUNNY   50  45  81 E3G9      30.79F
COTTONWOOD PAS CLOUDY    68  32  26 SE7       30.61F
GUNNISON       FAIR      74  38  27 NW6       30.43F
KREMMLING      FAIR      86  21   9 SW6       30.41F
LEADVILLE      PTSUNNY   65  26  23 S9        30.58F
MONARCH PASS   DRIZZLE   50  32  50 E15G23    30.85F
SALIDA         FAIR      74  43  32 E10       30.51F
SUNLIGHT       CLOUDY    55  32  41 SW6       30.70F
WILKERSON PASS FAIR      61  30  31 CALM      30.74F
$$

COZ069>075-222000-
...SAN LUIS VALLEY/SANGRE DE CRISTO MOUNTAINS...

CITY           SKY/WX    TMP DP  RH WIND       PRES   REMARKS
ALAMOSA        FAIR      72  45  37 E8        30.45F
DEL NORTE      FAIR      67  45  45 S3        30.49F THUNDER
LA VETA PASS   NOT AVBL
SAGUACHE         N/A    N/A N/A N/A MISG        N/A
$$

COZ035-036-038>040-222000-
...NORTHERN COLORADO FRONT RANGE...

CITY           SKY/WX    TMP DP  RH WIND       PRES   REMARKS
DENVER INTL AP PTSUNNY   81  57  43 SE7G17    30.28F
DMNS CITY PARK   N/A     80  50  34 NW3       30.28F
AURORA         PTSUNNY   82  58  43 N9        30.29F
FRONT RANGE AP FAIR      81  59  47 SE10G16   30.30F
ERIE MUNI ARPT FAIR      78  52  40 NW9       30.33F
BOULDER MUN AP FAIR      75  55  50 NW3       30.30F
CENTENNIAL     PTSUNNY   81  52  36 VRB3      30.31F
BROOMFIELD     FAIR      77  54  44 E7        30.32F
FORT COLLINS   CLOUDY    73  59  61 CALM      30.30F
LONGMONT       FAIR      79  58  49 NE6       30.31F
$$

COZ041-046-047-076>085-087-088-222000-
...PIKES PEAK/PALMER DIVIDE AND SOUTHERN FOOTHILLS...

CITY           SKY/WX    TMP DP  RH WIND       PRES   REMARKS
COLO. SPRINGS  PTSUNNY   72  59  63 S13       30.40F
A. F. ACADEMY  CLOUDY    70  57  64 S15G21    30.40F
SCHRIEVER AFB  PTSUNNY   69  57  65 S13G18    30.41F
CHEYENNE MTN   PTSUNNY   66  58  75 SE22      30.37F
ELLICOTT       CLOUDY   N/A N/A N/A S10       30.40F
FALCON         CLOUDY    68  55  62 S14G25    30.45F
FORT CARSON    FAIR      73  60  64 S14       30.37F
LIMON          FAIR      73  56  54 S13       30.35F
MONUMENT HILL  FAIR      68  54  60 S18G24    30.43S
CANON CITY     MOSUNNY   79  63  57 SE8       30.34F
WALSENBURG     FAIR      75  55  50 MISG      30.39F
TRINIDAD       CLOUDY    70  58  65 NE10      30.39S
$$

COZ042>045-048>051-090-091-222000-
...NORTHEAST COLORADO...

CITY           SKY/WX    TMP DP  RH WIND       PRES   REMARKS
GREELEY ARPT   FAIR      78  59  51 SE8       30.28F
AKRON            N/A     76  49  38 SE15G28   30.31F
BURLINGTON     FAIR      74  56  53 E8        30.32F
WRAY           NOT AVBL
YUMA           FAIR      72  45  37 SE12      30.30F
STERLING       FAIR      79  48  34 S9        30.26F
HOLYOKE        FAIR      79  54  41 SE10G17   30.29F
FORT MORGAN    FAIR      80  44  28 SE12G18   30.29F
$$

COZ086-089-092>099-222000-
...SOUTHEAST COLORADO...

CITY           SKY/WX    TMP DP  RH WIND       PRES   REMARKS
PUEBLO         FAIR      78  60  53 E14       30.32F
LA JUNTA       PTSUNNY   74  60  61 VRB6      30.32F
LAMAR          FAIR      77  58  51 NE8       30.28F
SPRINGFIELD      N/A     73  62  68 NE12G20   30.31F
$$




USA.gov is the U.S. government's official web portal to all federal, state and local government web resources and services.